RH
25 26 25 26 26 27 28 29 30 31 33 35 35 35 35 36 39 43 46 47 49 54 58 60 59 56 49 45 47 51 53 53 55 58 61 63 67 70 72 79 80 73 70 70 67 65 62 58 52 49 49 47 41 39 39 37 35 34 33 31 29 29 30 27 23 21 20 21 22 21 22 22 22 22 22 22 22 21 20 20 20 20 19 19 19
27 27 27 27 27 27 28 29 31 31 33 35 36 36 37 37 39 41 44 47 50 52 56 61 61 58 56 51 47 50 54 54 55 57 60 62 65 67 68 70 71 68 68 68 67 67 64 57 50 48 51 49 44 42 40 36 33 33 32 31 30 29 29 27 22 19 18 18 18 18 19 19 17 17 17 17 17 17 16 15 15 15 15 15 15
28 28 28 29 28 27 27 28 29 31 33 34 36 37 38 38 39 40 42 45 49 52 57 64 64 59 59 58 54 51 54 56 57 58 59 62 65 68 69 70 69 70 72 71 69 67 62 54 47 47 52 53 50 48 44 39 33 32 32 32 33 32 31 29 24 21 19 18 18 18 17 16 16 15 15 14 13 12 12 11 11 11 11 11 10
29 30 29 28 28 27 27 27 27 28 29 31 32 35 37 37 38 40 42 44 48 53 57 63 65 62 60 61 60 59 57 57 58 58 57 61 66 67 69 74 74 74 79 82 81 75 64 55 53 55 61 63 61 57 53 46 37 32 33 34 34 34 33 31 29 25 20 18 17 17 17 16 15 14 12 12 11 11 11 10 10 9 9 10 9
32 32 31 30 29 27 27 26 26 26 27 27 28 30 33 35 36 38 40 42 45 51 58 62 64 65 63 61 62 64 63 59 59 59 59 62 65 67 69 74 73 71 77 83 85 83 74 66 66 68 70 70 70 66 60 55 47 38 34 35 35 35 34 32 30 27 21 17 16 16 18 16 14 13 11 11 11 11 11 10 10 9 9 9 9
35 35 33 32 30 29 28 27 27 27 27 27 27 28 29 31 33 35 37 39 40 45 54 61 67 68 67 66 65 65 65 63 63 64 65 65 66 70 74 75 73 72 75 77 79 81 79 76 72 73 74 71 70 69 63 57 55 50 43 38 36 34 34 31 28 27 23 18 15 15 16 15 13 12 12 12 12 11 11 11 11 11 10 10 10
35 35 34 33 32 31 32 31 30 29 29 28 28 29 29 30 31 32 33 35 37 40 46 55 66 71 70 70 69 68 66 65 65 66 68 67 67 72 74 74 75 76 76 77 78 77 80 80 76 74 73 71 70 69 65 58 56 59 54 46 40 35 32 30 27 27 25 19 15 14 15 15 14 13 12 12 12 12 12 12 12 12 11 11 10
32 32 32 32 33 33 33 33 34 34 32 31 31 32 32 32 32 31 32 33 34 36 39 45 55 65 70 71 71 71 70 68 68 69 70 70 69 70 72 71 71 75 78 80 82 80 79 80 79 75 71 71 71 69 67 60 55 61 61 54 48 39 30 28 29 28 25 21 17 15 16 16 15 14 13 12 11 12 12 12 12 12 12 12 11
33 33 33 33 33 33 33 33 34 35 35 35 34 34 34 35 35 35 35 35 34 35 36 38 43 52 62 68 70 71 72 72 72 71 71 71 71 70 71 72 71 74 77 80 83 84 83 81 81 79 74 73 72 69 68 62 57 64 67 64 60 51 40 32 29 28 26 24 20 15 15 17 16 16 15 14 13 11 12 12 12 13 13 13 12
35 36 38 38 37 37 37 36 35 35 37 38 38 37 36 36 37 39 40 40 39 38 37 38 39 42 49 58 64 68 70 71 72 73 73 72 72 72 72 73 74 76 78 81 82 83 84 85 84 83 81 79 76 73 73 69 66 71 71 70 68 64 58 46 36 32 29 26 22 17 14 15 17 17 16 14 14 12 12 11 11 12 13 13 13
40 40 42 43 42 42 42 42 41 39 39 39 41 42 42 42 41 42 43 44 44 43 42 41 40 41 43 47 54 61 65 68 70 72 74 73 73 73 72 72 73 76 78 81 83 83 85 87 87 86 85 83 81 79 79 77 75 77 75 73 72 70 68 62 51 42 34 29 26 21 15 14 14 16 15 14 14 12 12 12 12 12 12 13 13
44 45 46 46 47 47 47 46 45 43 41 40 39 40 41 44 45 46 46 46 47 47 46 46 45 45 45 45 47 51 55 60 64 68 72 74 76 75 75 74 74 75 77 78 80 83 87 89 89 89 87 86 85 84 83 81 79 80 79 76 76 74 71 69 62 53 44 36 32 27 21 17 14 13 14 14 14 13 12 12 12 12 13 13 14
47 48 49 50 49 49 49 48 47 46 46 44 41 39 38 39 42 45 48 49 49 49 48 48 48 48 49 49 49 50 51 54 57 61 67 70 74 76 77 78 76 75 76 77 78 82 86 89 89 90 90 88 87 86 85 84 80 79 81 80 78 77 74 71 67 62 54 46 42 38 28 22 18 15 15 15 15 14 13 13 12 12 13 14 14
49 48 49 50 50 51 51 50 50 49 49 49 47 45 42 39 38 40 41 44 48 50 50 49 48 47 48 49 50 52 53 54 55 58 62 66 69 72 74 77 77 75 73 73 75 79 83 87 89 90 90 90 89 88 86 86 83 79 80 82 81 80 79 75 70 68 61 53 51 49 39 29 23 20 18 16 15 15 14 14 14 14 14 14 14
52 51 50 50 50 50 50 51 52 51 51 52 51 50 49 46 43 40 38 38 41 45 48 50 50 49 47 47 48 50 51 52 54 55 59 62 65 68 71 74 76 77 76 75 74 76 78 82 87 88 90 90 90 90 88 88 86 80 79 83 85 82 81 78 74 71 67 60 58 57 52 43 32 25 22 18 17 16 15 15 15 15 16 16 16
56 54 52 50 49 50 50 51 53 52 51 53 53 53 52 50 47 45 42 41 39 40 42 44 47 48 49 49 48 49 51 51 52 53 55 59 61 64 67 71 74 77 79 80 80 79 78 78 82 85 88 91 91 90 90 89 88 84 79 82 86 83 81 81 80 78 74 68 65 64 62 57 47 35 27 22 19 17 17 17 17 17 17 17 18
69 66 62 58 55 54 53 53 54 56 56 55 55 55 54 52 51 49 47 46 44 43 43 42 41 40 41 45 48 49 50 51 52 53 53 55 58 61 64 67 71 74 77 80 82 84 83 82 82 82 85 89 90 91 91 89 89 87 83 83 87 86 83 84 84 83 80 74 70 69 68 66 62 52 39 30 25 21 19 19 18 18 18 18 18
77 75 74 72 70 66 62 59 57 57 57 56 55 55 54 52 51 50 48 47 46 46 46 47 47 44 38 36 38 41 45 47 48 50 51 53 54 56 60 63 67 71 72 76 80 84 87 87 87 86 85 87 88 88 89 90 90 90 86 85 87 88 87 86 85 85 83 81 78 77 75 71 69 66 55 44 34 27 23 22 21 20 20 20 19
76 76 76 77 77 73 69 65 59 56 55 54 54 53 53 52 51 50 47 46 44 42 41 42 44 46 42 35 30 29 33 37 41 43 46 49 50 50 53 57 62 67 68 70 74 78 83 86 88 89 89 89 89 88 88 90 92 92 90 88 88 88 89 88 87 85 84 84 84 83 81 77 74 72 69 62 52 40 31 26 24 23 22 22 21
77 76 76 75 75 73 71 69 64 61 58 56 57 58 57 56 54 53 50 47 45 42 40 39 38 38 38 37 33 28 26 27 31 35 37 40 44 46 47 49 53 58 63 66 69 71 75 79 82 85 88 89 91 90 90 91 94 95 94 91 89 88 89 91 90 89 87 86 86 85 83 82 80 76 74 73 68 61 51 39 31 26 25 24 24
75 74 73 71 71 71 70 70 68 66 63 60 59 58 57 56 56 56 55 52 49 46 44 43 41 39 37 36 35 32 28 25 24 27 30 32 34 37 41 43 45 49 55 60 64 66 69 73 77 80 84 87 89 91 91 91 94 96 97 96 94 90 90 94 95 94 91 89 88 88 87 86 85 83 80 78 76 74 70 61 47 36 29 26 26
71 71 71 67 65 66 67 66 65 65 65 62 60 57 54 53 54 56 57 56 53 51 49 48 46 44 41 38 37 36 34 30 26 24 26 28 29 29 31 33 35 39 45 52 59 63 66 69 73 76 79 83 85 88 91 92 93 94 96 98 99 96 92 93 96 98 96 94 93 93 92 91 90 88 86 84 81 79 77 74 65 52 40 32 28
65 65 65 62 61 60 60 60 59 60 61 59 57 55 53 51 51 51 52 53 53 51 49 50 49 48 46 43 41 40 38 36 34 31 29 28 29 28 27 26 25 27 32 39 49 57 63 66 69 72 75 78 81 84 88 90 91 92 94 96 99 100 97 95 95 98 99 98 97 97 96 96 96 94 91 89 86 84 80 76 73 68 59 49 39
63 62 60 58 56 55 54 56 58 60 60 57 56 55 53 52 50 50 49 49 49 49 47 47 48 49 49 47 46 44 43 41 40 39 36 32 31 31 30 27 25 23 23 26 34 43 52 60 64 68 71 74 78 81 85 87 88 90 92 94 96 99 100 99 98 98 99 100 100 99 97 98 99 98 95 94 91 87 82 78 76 75 73 69 61
59 58 55 54 52 52 54 56 60 62 62 61 61 60 59 57 55 53 52 51 50 49 49 48 48 49 50 51 50 48 48 46 44 42 40 36 33 34 35 33 29 27 24 24 26 30 36 44 51 58 65 70 75 80 83 86 88 90 92 93 94 97 99 100 100 100 99 100 100 100 99 98 99 99 97 97 95 92 87 84 82 81 79 77 75
48 46 44 46 48 51 56 59 62 66 68 68 66 64 63 63 61 59 58 59 58 55 52 51 50 50 50 51 52 52 52 51 49 47 43 40 36 35 37 37 35 33 32 30 28 27 28 31 35 41 49 58 66 73 80 84 87 90 91 93 93 94 96 97 99 100 100 101 100 100 100 99 100 100 98 96 96 97 96 92 89 87 84 82 79
43 39 40 45 49 52 55 56 57 59 62 63 63 64 66 68 68 67 65 65 64 61 58 55 53 52 50 50 51 52 54 55 54 51 48 45 41 38 39 40 39 38 38 36 33 32 29 28 28 30 33 39 47 56 66 76 84 89 91 92 93 94 94 94 95 96 97 99 100 100 101 100 100 101 100 98 98 99 99 98 96 93 91 88 85
45 46 49 52 55 57 56 56 56 56 56 56 57 59 64 68 69 70 71 72 70 68 65 61 58 56 53 50 49 50 52 54 54 53 52 50 46 43 43 43 43 42 40 39 38 36 34 31 29 28 28 30 33 38 45 55 69 81 89 92 92 93 94 94 93 93 93 94 97 99 100 100 101 101 100 100 100 99 100 100 99 98 96 94 91
54 57 56 55 55 57 58 59 59 59 59 58 57 57 61 65 68 69 71 74 76 75 73 70 66 61 57 53 50 49 49 50 52 54 53 52 50 49 49 47 46 45 43 43 43 42 39 36 33 31 28 28 29 30 32 37 45 59 74 86 92 94 94 93 94 94 94 93 94 95 96 98 100 101 100 100 100 100 101 100 99 99 98 96 95
62 61 57 55 54 55 57 60 62 65 65 64 64 65 65 65 67 69 71 73 75 74 72 70 65 58 56 54 51 49 48 48 50 53 53 53 53 53 54 51 49 47 45 45 46 47 44 41 38 36 33 31 29 29 30 31 33 38 48 62 77 88 93 94 93 93 94 95 95 94 94 95 97 99 100 100 100 100 101 100 99 99 98 97 97
65 62 60 59 60 60 61 63 68 71 70 67 65 65 65 63 63 66 66 66 66 62 58 56 53 50 49 47 46 49 50 49 49 50 52 55 56 56 56 55 52 50 48 47 49 50 48 46 44 41 39 36 34 32 32 32 33 34 36 41 50 62 75 85 90 93 94 95 96 96 95 95 95 96 97 98 100 100 101 100 100 100 99 99 98
68 67 66 66 68 70 68 67 70 72 70 68 65 64 64 62 61 60 58 57 56 52 49 48 47 45 43 42 44 48 51 51 51 50 51 53 56 57 57 55 54 53 51 50 51 51 49 49 48 46 44 42 40 38 37 37 36 37 38 39 39 41 49 59 70 80 88 92 95 97 97 97 96 96 96 96 98 100 101 100 100 100 100 100 99
72 71 72 75 77 79 77 75 75 74 73 71 68 68 69 68 66 63 61 59 58 55 53 51 48 45 43 45 47 48 50 52 51 51 51 53 56 57 56 54 54 54 54 53 53 51 50 50 51 50 48 48 47 45 44 43 42 41 41 41 40 38 38 40 46 55 66 76 85 92 96 98 98 98 97 97 97 98 100 100 100 100 100 100 101
75 75 77 81 83 84 84 83 83 83 82 80 78 78 78 78 76 74 71 70 67 64 61 57 53 51 49 49 49 50 55 57 55 56 57 56 57 58 56 54 53 55 56 57 55 52 50 52 53 54 53 52 52 52 50 49 48 47 46 45 43 42 40 39 38 39 44 52 62 73 83 91 97 99 100 99 99 99 99 100 100 100 100 100 100
78 79 82 86 86 87 86 84 84 86 86 85 84 82 80 78 78 77 77 75 71 69 68 67 65 62 58 56 56 60 64 66 65 66 66 62 60 59 57 55 55 57 58 58 57 55 54 55 56 58 58 57 56 56 55 55 54 52 51 50 47 45 43 41 40 39 39 41 44 50 60 71 83 93 97 99 100 100 100 101 100 100 100 100 100
83 85 89 91 89 88 88 85 84 86 86 86 85 85 84 83 83 83 83 80 77 76 76 77 76 74 71 71 72 72 73 74 72 70 69 68 66 64 61 59 59 60 60 58 57 58 59 61 62 63 62 61 61 60 59 58 58 56 55 53 51 48 46 43 42 41 41 42 42 42 44 48 59 72 84 92 96 98 100 100 101 101 100 100 100
88 91 94 94 91 89 89 89 88 87 87 88 89 90 90 90 90 90 90 90 88 86 84 84 85 86 86 86 85 83 81 79 74 71 72 74 72 70 69 67 66 64 63 62 61 63 66 67 68 68 68 66 65 65 63 61 60 59 58 56 54 51 49 46 45 45 44 45 45 44 43 41 43 50 62 76 88 95 99 100 100 100 101 101 100
91 94 94 93 92 89 88 89 91 91 90 92 94 95 94 93 94 95 97 97 96 93 92 93 93 93 92 90 90 88 86 83 80 79 80 81 80 79 77 76 73 69 66 66 67 70 72 73 72 73 72 70 68 68 66 64 62 62 60 58 56 54 51 50 49 49 48 47 47 46 45 44 42 42 47 58 72 84 93 98 100 100 100 101 100
92 95 96 94 93 93 92 93 95 95 95 97 98 96 96 97 98 99 100 99 99 98 99 99 97 95 94 92 91 89 88 86 85 85 85 85 85 85 83 81 78 73 71 72 74 74 75 75 75 73 72 70 69 67 66 65 63 63 62 61 59 57 54 53 53 52 51 50 50 49 47 46 44 44 46 51 59 68 77 87 95 99 100 101 100
91 92 94 95 97 98 98 97 96 98 99 99 97 95 97 99 100 101 101 101 100 100 99 98 98 98 99 98 95 92 90 89 88 87 87 86 85 85 85 82 80 78 77 78 79 78 76 75 75 74 72 71 69 67 67 67 66 65 65 65 63 61 59 57 56 55 54 53 52 51 50 49 47 47 48 52 58 64 67 73 83 89 91 95 98
93 93 93 94 98 100 99 97 98 100 98 96 95 96 98 99 100 101 102 101 101 99 98 99 99 100 101 100 99 97 95 95 95 94 94 93 91 91 91 89 88 87 87 87 86 83 81 79 77 76 74 73 71 69 68 68 68 67 68 68 67 65 63 62 61 60 58 57 55 54 55 55 52 50 51 56 62 66 66 68 76 82 83 84 88
91 95 97 98 99 99 99 99 100 99 97 95 97 98 98 98 99 101 101 101 101 100 99 100 100 99 99 98 98 99 99 99 99 98 97 96 96 96 97 98 99 99 97 95 93 88 85 83 81 79 77 75 74 72 70 70 70 69 69 69 68 66 64 64 64 64 63 61 60 60 60 60 57 53 54 59 65 68 68 67 73 81 83 81 81
92 96 99 99 99 98 100 101 100 100 99 99 99 98 98 98 99 101 101 101 102 101 100 100 99 98 98 98 98 99 99 98 97 96 96 96 96 97 99 100 102 103 101 99 96 92 89 87 85 83 81 79 78 76 74 73 73 72 71 72 70 67 64 64 64 65 65 65 65 65 64 63 60 56 57 62 67 70 69 66 69 78 83 84 86
96 98 99 98 97 98 99 101 102 102 102 101 100 99 100 100 100 100 101 102 101 100 99 99 98 98 98 99 98 98 96 95 96 97 98 98 99 100 100 100 101 101 100 98 96 92 89 87 86 84 82 81 80 79 77 76 75 74 74 74 73 71 68 67 67 67 67 67 67 67 66 65 63 61 62 66 69 70 69 67 71 78 83 88 95
97 98 98 97 97 98 100 101 103 103 102 101 101 101 101 101 100 100 101 100 100 99 98 98 98 98 98 98 98 96 95 96 97 99 100 101 102 102 101 101 101 100 99 97 96 93 91 90 88 88 87 86 85 85 83 81 81 80 80 80 79 77 73 72 73 73 74 73 73 73 72 72 71 69 69 70 71 71 69 69 75 81 82 87 97
97 97 97 98 99 100 100 101 102 102 101 102 103 102 101 101 101 100 100 99 99 98 98 98 98 99 98 98 98 96 96 97 97 98 99 100 100 101 102 102 103 103 102 100 99 99 97 96 95 94 94 93 93 93 92 90 90 90 91 91 90 88 84 80 80 81 82 81 81 82 82 82 81 79 78 76 75 74 72 71 76 81 82 85 93
97 97 96 97 100 100 100 100 100 101 101 103 104 103 102 102 101 100 99 99 100 100 100 99 99 100 99 99 99 99 98 98 96 95 96 97 97 99 101 102 103 104 104 102 102 102 101 100 99 99 98 97 98 98 98 97 96 95 96 96 96 96 93 89 88 90 90 87 85 84 83 84 85 86 86 83 81 78 76 73 74 79 83 86 90
92 95 98 99 100 100 99 99 98 98 100 102 103 103 102 103 102 100 99 100 101 102 101 100 100 100 100 100 100 100 99 98 96 95 94 94 95 97 98 99 101 103 104 104 104 104 104 102 102 101 100 100 99 99 100 100 98 96 95 95 95 94 94 92 91 94 95 92 88 87 86 84 85 87 88 88 87 85 82 78 75 78 85 89 90
87 91 98 101 101 100 100 99 98 98 99 101 102 102 102 103 103 101 99 100 100 100 100 100 100 100 101 101 101 100 100 99 97 96 95 93 94 94 95 97 99 101 102 102 103 104 105 104 103 102 102 102 101 101 100 100 99 97 96 95 94 93 93 93 92 93 94 93 91 91 92 91 88 87 87 88 89 90 89 85 81 79 85 92 93
86 89 95 101 103 103 101 101 100 99 99 100 101 101 102 103 103 102 100 100 100 99 99 100 100 100 102 102 101 100 101 100 98 97 96 94 94 93 93 95 98 100 101 101 101 103 103 103 101 101 101 101 102 101 101 101 100 99 98 97 96 95 95 95 95 95 94 95 95 95 96 96 94 91 89 87 87 89 90 90 89 86 87 93 95
86 89 91 96 101 103 103 103 102 101 101 100 101 102 102 102 102 102 101 100 99 98 99 100 100 101 101 102 101 101 101 100 99 99 98 96 95 93 92 92 94 96 98 98 100 102 103 102 101 101 100 100 100 100 102 102 100 100 100 100 99 98 97 98 98 98 97 97 97 98 98 97 96 95 92 89 88 88 88 89 91 91 91 92 94